Weather History for KCHK - June, 2013

Change the Weather History Date:

Saturday, June 22, 2013

  Actual Average Record
Temperature  
Mean Temperature 82 °F -  
Max Temperature 95 °F 92 °F 101 °F (1953)
Min Temperature 69 °F 68 °F 58 °F (1992)
Cooling Degree Days 17    
Growing Degree Days 32 (Base 50)    
Moisture  
Dew Point 67 °F    
Average Humidity 59    
Maximum Humidity 83    
Minimum Humidity 40    
Precipitation  
Precipitation 0.00 in - - ()
Sea Level Pressure  
Sea Level Pressure 29.94 in    
Wind  
Wind Speed 12 mph (SSE)    
Max Wind Speed 24 mph    
Max Gust Speed 31 mph    
Visibility 10 miles    
Events      
Averages and records for this station are not official NWS values.
T = Trace of Precipitation, MM = Missing Value Source: NWS Daily Summary

Daily Weather History Graph

Daily Weather History Graph

Search for Another Location

Airport or City:

Trip Planner

Search our weather history database for the weather conditions in past years. The results will help you decide how hot, cold, wet, or windy it might be!

Date:

Astronomy

Jun. 22, 2013 Rise Set
Actual Time 6:18 AM CDT 8:49 PM CDT
Civil Twilight 5:48 AM CDT 9:19 PM CDT
Nautical Twilight 5:11 AM CDT 9:56 PM CDT
Astronomical Twilight 4:30 AM CDT 10:36 PM CDT
Moon 8:08 PM CDT (6/22) 5:30 AM CDT (6/22)
Length of Visible Light 15h 30m
Length of Day
14h 31m
Waxing Gibbous, 99% of the Moon is Illuminated
Jun 22
Waxing Gibbous
Jun 23
Full
Jun 29
Last Quarter
Jul 8
New
Jul 15
First Quarter

Hourly Weather History & Observations

Time (CDT) Temp. Heat Index Dew Point Humidity Pressure Visibility Wind Dir Wind Speed Gust Speed Precip Events Conditions
12:15 AM 78.8 °F - 64.4 °F 61% 29.95 in 10.0 mi SSE 11.5 mph 19.6 mph N/A   Clear
12:35 AM 78.8 °F - 64.4 °F 61% 29.96 in 10.0 mi SSE 11.5 mph 17.3 mph N/A   Clear
12:55 AM 78.8 °F - 64.4 °F 61% 29.96 in 10.0 mi SSE 10.4 mph - N/A   Clear
1:15 AM 78.8 °F - 64.4 °F 61% 29.96 in 10.0 mi SSE 8.1 mph - N/A   Clear
1:35 AM 78.8 °F - 64.4 °F 61% 29.95 in 10.0 mi South 10.4 mph - N/A   Clear
1:55 AM 80.6 °F 82.3 °F 64.4 °F 58% 29.94 in 10.0 mi South 12.7 mph - N/A   Clear
2:15 AM 78.8 °F - 64.4 °F 61% 29.94 in 10.0 mi SSE 9.2 mph 16.1 mph N/A   Clear
2:35 AM 78.8 °F - 64.4 °F 61% 29.94 in 10.0 mi SE 6.9 mph - N/A   Clear
2:55 AM 75.2 °F - 66.2 °F 73% 29.94 in 10.0 mi SE 8.1 mph - N/A   Clear
3:15 AM 73.4 °F - 64.4 °F 73% 29.95 in 10.0 mi SSE 6.9 mph - N/A   Clear
3:35 AM 77.0 °F - 66.2 °F 69% 29.94 in 10.0 mi South 9.2 mph - N/A   Clear
3:55 AM 77.0 °F - 64.4 °F 65% 29.94 in 10.0 mi SSE 12.7 mph - N/A   Clear
4:15 AM 77.0 °F - 64.4 °F 65% 29.94 in 10.0 mi SSE 10.4 mph - N/A   Clear
4:35 AM 77.0 °F - 66.2 °F 69% 29.94 in 10.0 mi SSE 10.4 mph - N/A   Clear
4:55 AM 77.0 °F - 66.2 °F 69% 29.94 in 10.0 mi SSE 10.4 mph - N/A   Clear
5:15 AM 73.4 °F - 66.2 °F 78% 29.95 in 10.0 mi SE 8.1 mph - N/A   Clear
5:35 AM 73.4 °F - 68.0 °F 83% 29.96 in 10.0 mi SSE 6.9 mph - N/A   Clear
5:55 AM 73.4 °F - 68.0 °F 83% 29.97 in 10.0 mi ESE 5.8 mph - N/A   Clear
6:15 AM 73.4 °F - 68.0 °F 83% 29.97 in 10.0 mi ESE 4.6 mph - N/A   Clear
6:35 AM 73.4 °F - 68.0 °F 83% 29.98 in 10.0 mi SE 4.6 mph - N/A   Clear
6:55 AM 69.8 °F - 64.4 °F 83% 29.98 in 10.0 mi Calm Calm - N/A   Clear
7:15 AM 73.4 °F - 68.0 °F 83% 29.97 in 10.0 mi South 5.8 mph - N/A   Clear
7:35 AM 73.4 °F - 64.4 °F 73% 29.97 in 7.0 mi South 8.1 mph - N/A   Clear
7:55 AM 77.0 °F - 66.2 °F 69% 29.97 in 10.0 mi South 11.5 mph - N/A   Clear
8:15 AM 77.0 °F - 66.2 °F 69% 29.98 in 10.0 mi South 11.5 mph - N/A   Clear
8:35 AM 78.8 °F - 66.2 °F 65% 29.99 in 10.0 mi SSE 10.4 mph - N/A   Clear
8:55 AM 78.8 °F - 66.2 °F 65% 29.99 in 7.0 mi South 11.5 mph 16.1 mph N/A   Clear
9:15 AM 80.6 °F 82.3 °F 64.4 °F 58% 30.00 in 10.0 mi South 12.7 mph 18.4 mph N/A   Clear
9:35 AM 80.6 °F 82.3 °F 64.4 °F 58% 30.00 in 7.0 mi South 11.5 mph 17.3 mph N/A   Clear
9:55 AM 82.4 °F 84.6 °F 66.2 °F 58% 29.99 in 10.0 mi South 13.8 mph 19.6 mph N/A   Clear
10:15 AM 82.4 °F 85.4 °F 68.0 °F 62% 29.99 in 10.0 mi SSW 15.0 mph - N/A   Clear
10:35 AM 82.4 °F 85.4 °F 68.0 °F 62% 29.99 in 10.0 mi South 13.8 mph 19.6 mph N/A   Clear
10:55 AM 86.0 °F 89.4 °F 68.0 °F 55% 29.99 in 10.0 mi SSW 15.0 mph 19.6 mph N/A   Clear
11:15 AM 87.8 °F 92.6 °F 69.8 °F 55% 29.99 in 10.0 mi South 13.8 mph 20.7 mph N/A   Clear
11:35 AM 89.6 °F 94.7 °F 69.8 °F 52% 30.00 in 10.0 mi South 17.3 mph - N/A   Clear
11:55 AM 89.6 °F 93.4 °F 68.0 °F 49% 30.00 in 10.0 mi SSW 11.5 mph 19.6 mph N/A   Clear
12:15 PM 89.6 °F 93.4 °F 68.0 °F 49% 29.99 in 10.0 mi South 12.7 mph 19.6 mph N/A   Clear
12:35 PM 89.6 °F 93.4 °F 68.0 °F 49% 29.98 in 10.0 mi SSW 19.6 mph 24.2 mph N/A   Clear
12:55 PM 89.6 °F 94.7 °F 69.8 °F 52% 29.97 in 10.0 mi South 17.3 mph 21.9 mph N/A   Clear
1:15 PM 89.6 °F 94.7 °F 69.8 °F 52% 29.97 in 10.0 mi South 13.8 mph 20.7 mph N/A   Clear
1:35 PM 89.6 °F 93.4 °F 68.0 °F 49% 29.96 in 10.0 mi South 16.1 mph 24.2 mph N/A   Clear
1:55 PM 91.4 °F 96.8 °F 69.8 °F 49% 29.95 in 10.0 mi South 17.3 mph 25.3 mph N/A   Clear
2:15 PM 91.4 °F 96.8 °F 69.8 °F 49% 29.94 in 10.0 mi SSE 19.6 mph 24.2 mph N/A   Clear
2:35 PM 91.4 °F 96.8 °F 69.8 °F 49% 29.94 in 10.0 mi South 13.8 mph 21.9 mph N/A   Clear
2:55 PM 91.4 °F 95.4 °F 68.0 °F 46% 29.94 in 10.0 mi SSE 13.8 mph 26.5 mph N/A   Clear
3:15 PM 91.4 °F 95.4 °F 68.0 °F 46% 29.93 in 10.0 mi SSE 18.4 mph 25.3 mph N/A   Clear
3:35 PM 91.4 °F 94.0 °F 66.2 °F 43% 29.92 in 10.0 mi South 16.1 mph 28.8 mph N/A   Clear
3:55 PM 95.0 °F 101.3 °F 69.8 °F 44% 29.91 in 10.0 mi South 19.6 mph 25.3 mph N/A   Clear
4:15 PM 95.0 °F 99.5 °F 68.0 °F 41% 29.91 in 10.0 mi South 18.4 mph 27.6 mph N/A   Clear
4:35 PM 91.4 °F 95.4 °F 68.0 °F 46% 29.90 in 10.0 mi South 23.0 mph 26.5 mph N/A   Clear
4:55 PM 91.4 °F 94.0 °F 66.2 °F 43% 29.89 in 10.0 mi SSE 24.2 mph 31.1 mph N/A   Clear
5:15 PM 91.4 °F 94.0 °F 66.2 °F 43% 29.88 in 10.0 mi SSE 24.2 mph 31.1 mph N/A   Clear
5:35 PM 91.4 °F 94.0 °F 66.2 °F 43% 29.88 in 10.0 mi South 20.7 mph 28.8 mph N/A   Clear
5:55 PM 89.6 °F 91.1 °F 64.4 °F 43% 29.87 in 10.0 mi South 24.2 mph 29.9 mph N/A   Clear
6:15 PM 89.6 °F 91.1 °F 64.4 °F 43% 29.87 in 10.0 mi SSE 18.4 mph 26.5 mph N/A   Clear
6:35 PM 89.6 °F 90.1 °F 62.6 °F 40% 29.86 in 10.0 mi SSE 17.3 mph 24.2 mph N/A   Clear
6:55 PM 89.6 °F 91.1 °F 64.4 °F 43% 29.86 in 10.0 mi SSE 13.8 mph 23.0 mph N/A   Clear
7:15 PM 89.6 °F 92.2 °F 66.2 °F 46% 29.86 in 10.0 mi SSE 16.1 mph 25.3 mph N/A   Clear
7:35 PM 89.6 °F 92.2 °F 66.2 °F 46% 29.86 in 10.0 mi South 18.4 mph 21.9 mph N/A   Clear
7:55 PM 86.0 °F 87.3 °F 64.4 °F 48% 29.86 in 10.0 mi South 12.7 mph 21.9 mph N/A   Clear
8:15 PM 84.2 °F 85.6 °F 64.4 °F 51% 29.87 in 10.0 mi SSE 11.5 mph - N/A   Clear
8:35 PM 82.4 °F 83.9 °F 64.4 °F 54% 29.87 in 10.0 mi SSE 9.2 mph - N/A   Clear
8:55 PM 80.6 °F 83.2 °F 68.0 °F 65% 29.88 in 10.0 mi SE 9.2 mph - N/A   Clear
9:15 PM 80.6 °F 83.2 °F 68.0 °F 65% 29.87 in 10.0 mi SE 9.2 mph - N/A   Clear
9:35 PM 80.6 °F 83.2 °F 68.0 °F 65% 29.88 in 10.0 mi SE 10.4 mph - N/A   Clear
9:55 PM 80.6 °F 83.2 °F 68.0 °F 65% 29.88 in 10.0 mi SE 11.5 mph - N/A   Clear
10:15 PM 78.8 °F - 68.0 °F 69% 29.88 in 10.0 mi SE 12.7 mph - N/A   Clear
10:35 PM 78.8 °F - 68.0 °F 69% 29.89 in 10.0 mi SE 11.5 mph 17.3 mph N/A   Clear
10:55 PM 78.8 °F - 68.0 °F 69% 29.89 in 10.0 mi SSE 11.5 mph - N/A   Clear
11:15 PM 78.8 °F - 68.0 °F 69% 29.90 in 10.0 mi SSE 10.4 mph - N/A   Clear
11:35 PM 78.8 °F - 68.0 °F 69% 29.90 in 10.0 mi SSE 10.4 mph - N/A   Clear
11:55 PM 78.8 °F - 68.0 °F 69% 29.90 in 10.0 mi SSE 9.2 mph - N/A   Clear